Find the Weather for any City, State  
or Zipcode, or Country:

West Linn, OR 97068 Weather
Local Radar
Local Radar  
Graphs, Details
Graphs and Gauges
Detailed Weather
Detailed Reports
Maps
Temperature
Heat Index
Windchill
Humidity
Radar
Dew Point
Wind
Visibility
Visible Satellite
Satellite
Fronts
Snow Depth
Jet Stream
Flight Rules
Forecast Maps
Temperature Forecast
Maximum Temperature Forecast
Minimum Temperature Forecast
Dewpoint Forecast
Prevalent Weather
12Hr Probability of Precip.
Sky Cover
Health Maps
UV Forecast
Air Quality
Peak Air Quality Index
Weather Station
Oregon Scientific WMR-968
Current Conditions [Select Refresh to Update]
Updated: 1:45am on 8/20/14
(location)
Currently:
63.5°
Clear
Clear
High: 66.0° 
(12:00am) 
Low: 63.5° 
(1:35am)
Wind: 0 mph from the NE
Gust: 2 mph
Today's High Wind: 6 mph (1:35am)
Humidity: 75%
Pressure: 29.93 in  (Steady) 
Pressure Rate: 0.013 in/hr
Dew Point: 55.4°
Wind Chill: 63.5°
Heat Index (feels like): 67.1°
Comfort Level: Comfortable
Temperature Rate:  -1.34°/hr
 
5 Day Forecast
 
Wed Thu Fri Sat Sun
Clear Clear Clear Clear Clear
Partly Cloudy Partly Cloudy Clear Partly Cloudy Partly Cloudy
75° 75° 79° 86° 90°
54° 54° 55° 57° 59°
Records and Normals
 
Temperature Forecast Normal Record
High 75° 82° 97°
(2011)
Low 54° 54° 44°
(1960)
 
Weather Advisories
No Advisories
Full Advisory Text...
Weather Map
Almanac
 
Sunrise:  
6:20am
Moonrise: 
1:57am
Moon Phase:
31%
Sunset: 
8:11pm
Moonset:  
5:03pm
 Star Chart...
Rainfall Totals
Hourly Rain 0.00 in
Daily Rain: 0.00 in
Monthly Rain: 0.00 in
Yearly Rain: 34.80 in
Normal Rain, month to date: 0.06 in
Normal Rain, year to date: 21.62 in
Local Weather Exchange® Network
Station ID City 
(Click for Map Location)
Neighborhood 
(Click for History)
Last Update (Date & Time) Temperature
 (°)
Dew
Point (°)
Humidity 
(%)
Wind 
(mph)
from the Wind Gust 
(mph) 
Pressure (in) Hourly
Rain (in)
KORWESTL3 West Linn Sunburst II 08/20 01:45:02 63.5 55.0 75 2 NE 4 29.93 0.00
KORWESTL7 West Linn Hidden Springs 08/20 01:44:46 62.2 57.0 83 1 NNW 5 29.86 0.00
KORWESTL11 West Linn Ridgebrook Park 08/20 01:35:10 61.1 56.0 84 0 NE 3 29.88 0.00
KORWESTL13 West Linn Vineland 08/20 01:44:27 63.7 48.0 56 0 North 0 27.44 0.00
KORWESTL1 West Linn Beaver Nation on Skyline Ridge 08/20 01:44:37 62.8 58.0 83 0 North 0 29.88 0.00
MORCO3 West Linn HADS WILLAMETTE RIVER BELOW OREGON CI OR US USGS 08/20 00:15:00 67.0 55.0 65 3 North 5 29.83 0.00
KORLAKEO12 Lake Oswego Marylhurst University 08/20 01:44:53 64.2 54.0 69 0 NW 3 29.84 0.00
KORGLADS5 GLADSTONE GLADSTONE (USA) 08/20 01:44:50 66.2 56.0 71 0 WSW 1 29.62 0.00
KOROREGO14 Oregon City 221 Molalla Avenue 08/20 01:45:00 62.2 56.0 82 3 NNE 3 29.57 0.00
KOROREGO10 Oregon City Tower Vista 08/20 01:45:04 63.1 54.0 69 0 North 0 29.88 0.00
KORGLADS6 Gladstone Gladstone - Gallweather.com 08/20 01:40:29 63.1 57.0 81 0 North 0 29.86 0.00
KORPORTL111 Portland Oakgrove PO 1E (Milwaukie) 08/20 01:45:01 63.5 58.0 82 0 NNE 0 29.86 0.00
KORGLADS4 Gladstone Gladstone - Go Beavers! 08/20 01:44:43 62.8 57.0 81 0 North 0 29.92 0.00
KOROREGO6 Oregon City Gaffney Lane Neighborhood 08/20 01:45:03 64.7 59.0 83 0 NNW 2 29.76 0.00
KORCLACK9 Clackamas 82nd Drive (GO BLAZERS) 08/20 01:45:03 65.9 58.0 76 0 WNW 0 29.88 0.00
KORCLACK8 Clackamas Watkins Park 08/20 01:44:55 64.4 57.0 77 0 North 3 29.84 0.00
KORCLACK6 Clackamas CHPCS Falcons 08/20 01:44:29 65.3 58.0 77 0 WNW 0 29.81 0.00
KORMILWA3 Milwaukie meso_neigh18 08/20 01:45:02 65.3 54.0 62 0 North 0 29.89 0.00
KORTUALA9 Tualatin BartNW 08/20 01:40:07 63.6 53.0 68 0 North 0 29.88 0.00
KORTUALA2 Tualatin 3DAdams Weather 08/20 01:45:00 62.9 56.0 78 0 West 0 29.89 0.00
KORPORTL175 Portland SW Portland - Tryon Creek 08/20 01:40:25 61.7 58.0 88 0 South 0 29.88 0.00
KORTUALA3 Tualatin Tualatin 08/20 01:44:03 61.8 51.0 67 0 North 0 29.93 0.00
KORMILWA5 Milwaukie meso_neigh23 08/20 01:45:03 63.5 56.0 76 0 NE 5 29.85 0.00
KORTIGAR19 Tigard La maison de Saison (Bonita) 08/20 01:43:01 63.5 57.0 79 2 West 2 29.88 0.00
KORMILWA6 Milwaukie Logus-Stanley 08/20 01:44:41 63.1 57.0 80 0 North 1 29.92 0.00
KORPORTL104 Portland West Portland Park 08/20 01:44:28 61.0 54.0 79 0 WNW 0 29.84 0.00
KOROREGO23 Oregon City Bradley Rd 08/20 01:40:22 61.6 54.0 77 0 NNE 0 29.86 0.00
KORCANBY8 Canby Quarter Moon Ranch Weather 08/20 01:44:07 62.9 59.0 88 0 NNE 0 29.51 0.00
KORMILWA10 Milwaukie Milwaukie 08/20 01:45:00 63.8 57.0 78 2 West 4 29.92 0.00
KORPORTL227 Portland Ardenwald Station #1 08/20 01:40:38 63.1 56.0 78 0 WSW 1 29.88 0.00
KORPORTL172 Portland Portland Rowing Club 08/20 01:45:01 63.7 57.0 79 0 NE 6 29.91 0.00
KORPORTL200 Portland South Burlingame 08/20 01:44:55 63.5 55.0 73 0 North 0 29.54 0.00
KORTUALA7 Tualatin Lake Forest 08/20 01:44:42 61.5 50.0 66 0 ESE 0 29.65 0.00
KORCANBY3 Canby West of Fair Grounds 08/20 01:44:57 63.5 55.0 75 0 South 0 29.89 0.00
KORWILSO8 Wilsonville Charbonneau Lakeside 08/20 01:45:02 63.0 58.0 85 0 North 2 29.40 0.00
KORWILSO7 Wilsonville The Village at Main Street 08/20 01:44:55 66.7 46.0 47 0 WSW 0 0.00 0.00
KORPORTL216 Portland Smith School 08/20 01:44:55 61.3 57.0 86 0 ESE 1 29.90 0.00
KUAO Aurora Official Station 08/20 00:53:00 62.0 54.0 75 4 NNW --- 29.90 ---
KPDX Portland Official Station 08/20 00:53:00 63.0 55.0 75 4 NNW --- 29.90 ---
KVUO Vancouver Official Station 08/19 23:53:00 64.0 54.0 70 5 NNW --- 29.89 ---
Full Advisory Text
No Warnings

© Ambient Weather and Weather Underground
 Never base important decisions on this or any weather information obtained from the Internet
Updated Automatically by Ambient Weather's Virtual Weather Station  V13.01